Greenwood, SC

2:04 AM EDT on July 26, 2017 (GMT -0400)
Greenwood County

Weather History for KGRD - March, 2013

Change the Weather History Date:

Monday, March 25, 2013

  Actual Average (KAND) Record (KAND)
Temperature  
Mean Temperature 42 °F -  
Max Temperature 46 °F 65 °F 88 °F (2007)
Min Temperature 36 °F 42 °F 25 °F (1956)
Degree Days  
Heating Degree Days 24    
Moisture  
Dew Point 27 °F    
Average Humidity 59    
Maximum Humidity 100    
Minimum Humidity 39    
Precipitation  
Precipitation 0.00 in - - ()
Sea Level Pressure  
Sea Level Pressure 29.78 in    
Wind  
Wind Speed 11 mph (West)    
Max Wind Speed 20 mph    
Max Gust Speed 33 mph    
Visibility 10 miles    
Events      
Averages and records for this station are not official NWS values.
T = Trace of Precipitation, MM = Missing Value Source: NWS Daily Summary

Daily Weather History Graph

Daily Weather History Graph

Search for Another Location

Airport or City:

Trip Planner

Search our weather history database for the weather conditions in past years. The results will help you decide how hot, cold, wet, or windy it might be!

Date:

Astronomy

Mar. 25, 2013 Rise Set
Actual Time 7:25 AM EDT 7:44 PM EDT
Civil Twilight 7:00 AM EDT 8:09 PM EDT
Nautical Twilight 6:30 AM EDT 8:38 PM EDT
Astronomical Twilight 6:00 AM EDT 9:08 PM EDT
Moon 6:17 PM EDT (3/25) 6:04 AM EDT (3/25)
Length of Visible Light 13h 09m
Length of Day
12h 19m
Waxing Gibbous, 96% of the Moon is Illuminated
Mar 25
Waxing Gibbous
Mar 27
Full
Apr 3
Last Quarter
Apr 10
New
Apr 18
First Quarter

Hourly Weather History & Observations

Time (EDT) Temp. Windchill Dew Point Humidity Pressure Visibility Wind Dir Wind Speed Gust Speed Precip Events Conditions
12:20 AM 42.8 °F 40.1 °F 42.8 °F 100% 29.61 in 7.0 mi South 4.6 mph - N/A   Overcast
12:56 AM 43.0 °F 38.2 °F 42.1 °F 97% 29.62 in 9.0 mi SW 8.1 mph - N/A   Overcast
1:23 AM 44.6 °F 39.7 °F 41.0 °F 87% 29.62 in 10.0 mi WSW 9.2 mph - N/A   Scattered Clouds
1:56 AM 43.0 °F 36.0 °F 39.9 °F 89% 29.63 in 10.0 mi WSW 13.8 mph 23.0 mph N/A   Clear
2:56 AM 41.0 °F 34.3 °F 33.1 °F 73% 29.65 in 10.0 mi WSW 11.5 mph - N/A   Clear
3:56 AM 39.9 °F 33.4 °F 32.0 °F 73% 29.65 in 10.0 mi WSW 10.4 mph - N/A   Clear
4:56 AM 39.0 °F 32.8 °F 30.9 °F 73% 29.66 in 10.0 mi WSW 9.2 mph - N/A   Clear
5:56 AM 39.0 °F 31.8 °F 30.9 °F 73% 29.68 in 10.0 mi WSW 11.5 mph 20.7 mph N/A   Partly Cloudy
6:56 AM 39.9 °F 32.1 °F 27.0 °F 60% 29.70 in 10.0 mi West 13.8 mph 24.2 mph N/A   Mostly Cloudy
7:56 AM 39.0 °F 31.4 °F 27.0 °F 62% 29.72 in 10.0 mi West 12.7 mph 19.6 mph N/A   Overcast
8:56 AM 39.0 °F 31.4 °F 26.1 °F 60% 29.74 in 10.0 mi West 12.7 mph 27.6 mph N/A   Overcast
9:56 AM 42.1 °F 34.9 °F 23.0 °F 47% 29.76 in 10.0 mi West 13.8 mph 26.5 mph N/A   Scattered Clouds
10:56 AM 43.0 °F 34.8 °F 25.0 °F 49% 29.79 in 10.0 mi West 18.4 mph 28.8 mph N/A   Scattered Clouds
11:56 AM 43.0 °F 34.5 °F 23.0 °F 45% 29.81 in 10.0 mi West 19.6 mph 31.1 mph N/A   Overcast
12:56 PM 43.0 °F 34.5 °F 21.9 °F 43% 29.82 in 10.0 mi West 19.6 mph 33.4 mph N/A   Overcast
1:56 PM 45.0 °F 37.6 °F 23.0 °F 42% 29.81 in 10.0 mi West 17.3 mph 32.2 mph N/A   Mostly Cloudy
2:56 PM 46.0 °F 39.3 °F 23.0 °F 40% 29.80 in 10.0 mi WSW 16.1 mph 26.5 mph N/A   Mostly Cloudy
3:56 PM 45.0 °F 37.4 °F 21.9 °F 40% 29.81 in 10.0 mi West 18.4 mph 26.5 mph N/A   Mostly Cloudy
4:56 PM 45.0 °F 38.5 °F 21.0 °F 39% 29.82 in 10.0 mi West 13.8 mph 28.8 mph N/A   Scattered Clouds
5:56 PM 44.1 °F 38.6 °F 21.9 °F 42% 29.86 in 10.0 mi West 10.4 mph 21.9 mph N/A   Overcast
6:56 PM 42.1 °F 34.9 °F 21.9 °F 45% 29.89 in 10.0 mi WNW 13.8 mph 26.5 mph N/A   Mostly Cloudy
7:56 PM 39.9 °F 30.8 °F 21.0 °F 47% 29.92 in 10.0 mi West 18.4 mph 27.6 mph N/A   Clear
8:56 PM 39.0 °F - 19.0 °F 45% 29.95 in 10.0 mi North - - N/A   Clear
9:56 PM 37.9 °F 30.5 °F 21.0 °F 51% 29.97 in 10.0 mi West 11.5 mph 19.6 mph N/A   Unknown
10:56 PM 37.0 °F 31.0 °F 19.9 °F 50% 29.99 in 10.0 mi West 8.1 mph 17.3 mph N/A   Unknown
11:56 PM 36.0 °F 29.6 °F 19.9 °F 52% 30.00 in 10.0 mi West 8.1 mph 19.6 mph N/A   Clear